Location: Acequia del Cap
(41.7000°N, 0.6167°E)
Time: 00:35:34
(UTC+00:00)

CZ-4B R/B - Pass Details

Date: 07 August 2020
Orbit: 391 x 462 km, 97.6° (Epoch: 22 September)

Event Time Altitude Azimuth Distance (km) Brightness Sun altitude
Rises 03:57:20 0° 153° (SSE) 2,425 5.0 -10.8°
Reaches altitude 10° 03:59:25 10° 147° (SSE) 1,548 4.1 -10.5°
Maximum altitude 04:02:35 44° 74° (ENE) 613 2.7 -10.0°
Drops below altitude 10° 04:05:41 10° 1° (N) 1,522 4.6 -9.5°
Sets 04:07:43 0° 355° (N) 2,379 5.5 -9.2°
